Weather History for Atqasuk Edward Burnell Sr Mem, AK

Change the Weather History Date:

Wednesday, January 8, 2014

  Actual Average (PABR) Record (PABR)
Temperature  
Mean Temperature -18 °F -13 °F  
Max Temperature -11 °F -7 °F 31 °F (2005)
Min Temperature -25 °F -19 °F -48 °F (1917)
Degree Days  
Heating Degree Days 83 78  
Month to date heating degree days 617  
Since 1 July heating degree days 8824  
Cooling Degree Days 0    
Month to date cooling degree days  
Year to date cooling degree days  
Moisture  
Dew Point -28 °F    
Average Humidity 72    
Maximum Humidity 84    
Minimum Humidity 69    
Precipitation  
Precipitation 0.00 in 0.01 in 0.62 in (2001)
Month to date precipitation 0.04  
Year to date precipitation 0.04  
Snow  
Snow 0.00 in 0.10 in 7.30 in (2001)
Month to date snowfall 0.7  
Since 1 July snowfall 24.5  
Snow Depth -    
Sea Level Pressure  
Sea Level Pressure 29.95 in    
Wind  
Wind Speed 4 mph (NE)    
Max Wind Speed 13 mph    
Max Gust Speed -    
Visibility 4 miles    
Events Snow    
T = Trace of Precipitation, MM = Missing Value Source: NWS Daily Summary

Daily Weather History Graph

Daily Weather History Graph

Search for Another Location

Airport:

Trip Planner

Search our weather history database for the weather conditions in past years. The results will help you decide how hot, cold, wet, or windy it might be!

Date:

Astronomy

Dec. 31, 1969 Rise Set
Actual Time Sun does not rise Sun does not rise
Civil Twilight 11:13 AM AKST 4:00 PM AKST
Nautical Twilight 9:30 AM AKST 5:43 PM AKST
Astronomical Twilight 8:11 AM AKST 7:02 PM AKST
Moon 11:43 AM AKST (1/8) 3:34 AM AKST (1/8)
Length of Visible Light 4h 47m
Length of Day
0h 00m
First Quarter, 57% of the Moon is Illuminated
Jan 8
First Quarter
Jan 15
Full
Jan 23
Last Quarter
Jan 30
New
Feb 6
First Quarter

Hourly Weather History & Observations

Time (AKST) Temp. Windchill Dew Point Humidity Pressure Visibility Wind Dir Wind Speed Gust Speed Precip Events Conditions
12:56 AM -24.0 °F -35.2 °F -29.9 °F 74% 30.02 in 10.0 mi North 3.5 mph - N/A   Clear
1:18 AM -23.8 °F -39.8 °F -29.2 °F 76% 29.99 in 1.8 mi NE 5.8 mph - N/A   Haze
1:30 AM -23.8 °F -37.7 °F -31.0 °F 69% 29.99 in 3.0 mi NNE 4.6 mph - N/A   Haze
1:42 AM -25.6 °F -37.1 °F -32.8 °F 69% 29.99 in 2.5 mi NE 3.5 mph - N/A   Haze
1:56 AM -24.9 °F -36.3 °F -31.9 °F 70% 30.01 in 1.5 mi NNE 3.5 mph - N/A   Haze
2:18 AM -25.6 °F - -32.8 °F 69% 29.98 in 1.2 mi Calm Calm - N/A   Haze
2:27 AM -25.6 °F -37.1 °F -32.8 °F 69% 29.98 in 1.5 mi NE 3.5 mph - N/A   Haze
3:27 AM -25.6 °F -41.9 °F -32.8 °F 69% 29.96 in 0.8 mi East 5.8 mph - N/A   Haze
3:46 AM -25.6 °F -39.8 °F -32.8 °F 69% 29.96 in 1.0 mi ENE 4.6 mph - N/A   Haze
3:56 AM -24.0 °F -35.2 °F -31.0 °F 70% 29.99 in 1.0 mi ESE 3.5 mph - N/A   Haze
4:12 AM -23.8 °F -37.7 °F -31.0 °F 69% 29.95 in 1.5 mi ENE 4.6 mph - N/A   Haze
4:29 AM -25.6 °F - -31.0 °F 76% 29.95 in 1.0 mi Calm Calm - N/A   Haze
4:36 AM -25.6 °F - -31.0 °F 76% 29.95 in 1.2 mi Calm Calm - N/A   Haze
4:43 AM -23.8 °F - -31.0 °F 69% 29.95 in 1.5 mi Calm Calm - N/A   Haze
4:48 AM -23.8 °F - -31.0 °F 69% 29.94 in 1.0 mi Calm Calm - N/A   Haze
4:56 AM -24.0 °F - -31.0 °F 70% 29.97 in 1.2 mi Calm Calm - N/A   Haze
5:14 AM -23.8 °F -35.0 °F -31.0 °F 69% 29.94 in 2.0 mi NNW 3.5 mph - N/A   Haze
5:22 AM -23.8 °F -35.0 °F -31.0 °F 69% 29.94 in 3.0 mi NNW 3.5 mph - N/A   Haze
5:25 AM -23.8 °F - -31.0 °F 69% 29.94 in 1.8 mi Calm Calm - N/A   Haze
5:30 AM -23.8 °F - -31.0 °F 69% 29.94 in 1.0 mi Calm Calm - N/A   Haze
5:48 AM -23.8 °F - -31.0 °F 69% 29.93 in 0.8 mi Calm Calm - N/A   Haze
5:56 AM -24.0 °F - -31.0 °F 70% 29.96 in 1.0 mi Calm Calm - N/A   Haze
6:03 AM -23.8 °F - -31.0 °F 69% 29.93 in 0.8 mi Calm Calm - N/A   Haze
6:20 AM -23.8 °F - -31.0 °F 69% 29.93 in 0.5 mi Calm Calm - N/A   Haze
6:56 AM -24.0 °F -35.2 °F -31.0 °F 70% 29.95 in 0.8 mi NE 3.5 mph - N/A   Haze
7:35 AM -25.6 °F - -32.8 °F 69% 29.92 in 1.2 mi Calm Calm - 0.00 in Snow Light Snow
7:56 AM -24.0 °F -37.9 °F -31.0 °F 70% 29.94 in 1.0 mi East 4.6 mph - 0.00 in   Haze
8:06 AM -23.8 °F -35.0 °F -31.0 °F 69% 29.92 in 0.8 mi SE 3.5 mph - N/A   Haze
8:18 AM -23.8 °F -35.0 °F -31.0 °F 69% 29.92 in 1.2 mi East 3.5 mph - N/A   Haze
8:45 AM -23.8 °F -41.6 °F -29.2 °F 76% 29.92 in 1.0 mi East 6.9 mph - 0.00 in Snow Light Snow
8:56 AM -22.0 °F -35.6 °F -29.2 °F 69% 29.92 in 0.8 mi East 4.6 mph - N/A   Haze
9:03 AM -22.0 °F -37.7 °F -29.2 °F 69% 29.92 in 0.5 mi East 5.8 mph - N/A   Haze
9:35 AM -22.0 °F -33.0 °F -27.4 °F 76% 29.93 in 0.2 mi North 3.5 mph - N/A   Haze
9:56 AM -20.9 °F -34.3 °F -26.9 °F 74% 29.95 in 0.2 mi North 4.6 mph - N/A   Haze
10:56 AM -18.9 °F - -26.0 °F 70% 29.95 in 0.5 mi Calm Calm - N/A   Haze
11:11 AM -20.2 °F - -25.6 °F 76% 29.93 in 0.2 mi Calm Calm - N/A   Haze
11:25 AM -20.2 °F -30.9 °F -25.6 °F 76% 29.93 in 0.5 mi East 3.5 mph - N/A   Haze
11:34 AM -20.2 °F - -27.4 °F 69% 29.93 in 0.2 mi Calm Calm - N/A   Haze
11:56 AM -20.2 °F -30.9 °F -27.4 °F 69% 29.93 in 0.2 mi ENE 3.5 mph - N/A   Haze
12:07 PM -20.2 °F - -27.4 °F 69% 29.94 in 0.5 mi Calm Calm - N/A   Haze
12:27 PM -20.2 °F -33.5 °F -27.4 °F 69% 29.93 in 0.2 mi ENE 4.6 mph - N/A   Haze
12:36 PM -20.2 °F -30.9 °F -27.4 °F 69% 29.93 in 0.2 mi NE 3.5 mph - N/A   Haze
12:56 PM -19.8 °F -33.1 °F -26.9 °F 70% 29.96 in 0.2 mi ENE 4.6 mph - 0.00 in Snow Heavy Snow
1:35 PM -20.2 °F -33.5 °F -27.4 °F 69% 29.94 in 0.5 mi ENE 4.6 mph - 0.00 in Snow Snow
1:56 PM -20.9 °F -31.7 °F -26.9 °F 74% 29.96 in 1.0 mi NNE 3.5 mph - 0.00 in Snow Light Snow
2:17 PM -20.2 °F -33.5 °F -27.4 °F 69% 29.94 in 0.8 mi NNE 4.6 mph - 0.00 in   Haze
2:23 PM -20.2 °F -30.9 °F -27.4 °F 69% 29.94 in 1.2 mi North 3.5 mph - 0.00 in   Haze
2:28 PM -20.2 °F -30.9 °F -27.4 °F 69% 29.94 in 2.0 mi North 3.5 mph - 0.00 in   Haze
2:38 PM -20.2 °F -30.9 °F -27.4 °F 69% 29.94 in 8.0 mi North 3.5 mph - 0.00 in   Overcast
2:56 PM -20.9 °F -34.3 °F -27.9 °F 70% 29.96 in 10.0 mi NNE 4.6 mph - 0.00 in   Scattered Clouds
3:56 PM -19.8 °F -38.3 °F -26.0 °F 73% 29.96 in 10.0 mi NE 8.1 mph - 0.00 in Snow Light Snow
4:04 PM -20.2 °F -38.8 °F -25.6 °F 76% 29.93 in 10.0 mi NE 8.1 mph - 0.00 in   Mostly Cloudy
4:15 PM -20.2 °F -38.8 °F -25.6 °F 76% 29.93 in 10.0 mi NE 8.1 mph - 0.00 in Snow Light Snow
4:35 PM -20.2 °F -40.1 °F -25.6 °F 76% 29.93 in 10.0 mi NE 9.2 mph - 0.00 in   Scattered Clouds
4:43 PM -18.4 °F -36.6 °F -25.6 °F 70% 29.93 in 10.0 mi NE 8.1 mph - 0.00 in   Mostly Cloudy
4:56 PM -18.9 °F -39.8 °F -24.9 °F 74% 29.95 in 2.5 mi NE 10.4 mph - 0.00 in Snow Light Snow
5:00 PM -18.4 °F -39.1 °F -23.8 °F 76% 29.93 in 1.5 mi NE 10.4 mph - 0.00 in Snow Light Snow
5:06 PM -18.4 °F -41.2 °F -23.8 °F 76% 29.93 in 1.0 mi NE 12.7 mph - 0.00 in Snow Light Snow
5:12 PM -16.6 °F -36.8 °F -23.8 °F 70% 29.93 in 1.5 mi NE 10.4 mph - 0.00 in Snow Light Snow
5:16 PM -16.6 °F -34.4 °F -23.8 °F 70% 29.93 in 3.0 mi NE 8.1 mph - 0.00 in Snow Light Snow
5:32 PM -16.6 °F -34.4 °F -23.8 °F 70% 29.93 in 10.0 mi NE 8.1 mph - 0.00 in   Overcast
5:56 PM -17.9 °F -35.9 °F -24.0 °F 74% 29.96 in 10.0 mi NE 8.1 mph - 0.00 in   Scattered Clouds
6:11 PM -18.4 °F -36.6 °F -23.8 °F 76% 29.93 in 10.0 mi NE 8.1 mph - N/A   Mostly Cloudy
6:43 PM -18.4 °F -35.1 °F -25.6 °F 70% 29.94 in 10.0 mi NE 6.9 mph - N/A   Scattered Clouds
6:56 PM -18.9 °F -37.2 °F -26.0 °F 70% 29.96 in 10.0 mi NE 8.1 mph - N/A   Mostly Cloudy
7:06 PM -20.2 °F -38.8 °F -25.6 °F 76% 29.94 in 10.0 mi NE 8.1 mph - N/A   Mostly Cloudy
7:35 PM -20.2 °F -40.1 °F -27.4 °F 69% 29.94 in 10.0 mi ENE 9.2 mph - N/A   Mostly Cloudy
7:56 PM -20.9 °F -39.7 °F -26.9 °F 74% 29.96 in 10.0 mi ENE 8.1 mph - N/A   Overcast
8:56 PM -17.9 °F -30.7 °F -24.0 °F 74% 29.97 in 10.0 mi ENE 4.6 mph - N/A   Overcast
9:15 PM -16.6 °F -31.3 °F -23.8 °F 70% 29.94 in 10.0 mi NE 5.8 mph - 0.00 in Snow Light Snow
9:33 PM -16.6 °F -31.3 °F -20.2 °F 84% 29.94 in 10.0 mi NE 5.8 mph - 0.00 in Snow Light Snow
9:56 PM -13.9 °F -29.7 °F -18.9 °F 78% 29.97 in 10.0 mi ENE 6.9 mph - 0.00 in Snow Light Snow
10:06 PM -13.0 °F -30.0 °F -18.4 °F 77% 29.95 in 10.0 mi ENE 8.1 mph - 0.00 in Snow Light Snow
10:56 PM -11.9 °F -25.7 °F -17.0 °F 78% 29.97 in 10.0 mi ENE 5.8 mph - 0.00 in Snow Light Snow
11:56 PM -11.2 °F -23.0 °F -16.6 °F 77% 29.95 in 10.0 mi NE 4.6 mph - N/A Snow Light Snow